,,,PA_Meas_PMT16A,,PR_Meas_QMR101_102,,RH_Meas_QMH101,,SR_Meas_QMS101,,TA_Meas_QMH101,,GenWind,,GenWind,
date,time,status,PA,status,PR,status,RH,status,SR,status,TA,status,DirAvg,status,SpdAvg,
2009-02-18, 00:00:04,VALID,1004.67,VALID,0,VALID,84.9781,VALID,0,VALID,25.4753,VALID,292,VALID,0,
2009-02-18, 00:01:04,VALID,1004.65,VALID,0,VALID,85.062,VALID,0,VALID,25.4344,VALID,320,VALID,0.305469,
2009-02-18, 00:02:04,VALID,1004.63,VALID,0,VALID,85.001,VALID,0,VALID,25.4558,VALID,354,VALID,0.714844,
2009-02-18, 00:03:04,VALID,1004.64,VALID,0,VALID,84.9094,VALID,0.100563,VALID,25.4558,VALID,351,VALID,0.641406,
2009-02-18, 00:04:04,VALID,1004.61,VALID,0,VALID,84.9552,VALID,0,VALID,25.4558,VALID,344,VALID,0.548437,
2009-02-18, 00:05:04,VALID,1004.6,VALID,0,VALID,85.1917,VALID,0,VALID,25.4344,VALID,346,VALID,0.496484,
2009-02-18, 00:06:04,VALID,1004.54,VALID,0,VALID,85.1383,VALID,0,VALID,25.4363,VALID,346,VALID,0.355078,
2009-02-18, 00:07:04,VALID,1004.55,VALID,0,VALID,85.1459,VALID,0,VALID,25.3955,VALID,352,VALID,0.452734,
2009-02-18, 00:08:04,VALID,1004.57,VALID,0,VALID,85.1841,VALID,0,VALID,25.4169,VALID,329,VALID,0.108594,
2009-02-18, 00:09:04,VALID,1004.54,VALID,0,VALID,85.1993,VALID,0,VALID,25.4169,VALID,1,VALID,0.227734,
2009-02-18, 00:10:04,VALID,1004.52,VALID,0,VALID,85.1307,VALID,0.100563,VALID,25.3974,VALID,360,VALID,0.367578,
2009-02-18, 00:11:04,VALID,1004.47,VALID,0,VALID,84.9705,VALID,0,VALID,25.4169,VALID,350,VALID,0.901953,
2009-02-18, 00:12:04,VALID,1004.46,VALID,0,VALID,85.0544,VALID,0,VALID,25.4169,VALID,344,VALID,0.610937,
2009-02-18, 00:13:04,VALID,1004.46,VALID,0,VALID,85.0391,VALID,0,VALID,25.3974,VALID,345,VALID,0.365625,
2009-02-18, 00:14:04,VALID,1004.42,VALID,0,VALID,84.9781,VALID,0,VALID,25.3974,VALID,296,VALID,0.510938,
2009-02-18, 00:15:04,VALID,1004.42,VALID,0,VALID,84.8713,VALID,0,VALID,25.4169,VALID,279,VALID,0.46875,
2009-02-18, 00:16:04,VALID,1004.4,VALID,0,VALID,84.9857,VALID,0,VALID,25.4149,VALID,342,VALID,0.194531,
2009-02-18, 00:17:04,VALID,1004.38,VALID,0,VALID,84.9018,VALID,0,VALID,25.4169,VALID,342,VALID,0.283984,
2009-02-18, 00:18:04,VALID,1004.36,VALID,0,VALID,84.7721,VALID,0,VALID,25.4149,VALID,292,VALID,0.897266,
2009-02-18, 00:19:04,VALID,1004.34,VALID,0,VALID,84.9171,VALID,0,VALID,25.4363,VALID,276,VALID,0.333203,
2009-02-18, 00:20:04,VALID,1004.36,VALID,0,VALID,84.9705,VALID,0,VALID,25.4577,VALID,277,VALID,0.0199219,
2009-02-18, 00:21:04,VALID,1004.32,VALID,0,VALID,84.6043,VALID,0,VALID,25.4149,VALID,339,VALID,0.38125,
2009-02-18, 00:22:04,VALID,1004.31,VALID,0,VALID,84.3449,VALID,0,VALID,25.4753,VALID,299,VALID,0.852344,
2009-02-18, 00:23:04,VALID,1004.29,VALID,0,VALID,83.9024,VALID,0,VALID,25.5162,VALID,292,VALID,0.591016,
2009-02-18, 00:24:04,VALID,1004.28,VALID,0,VALID,84.0321,VALID,0,VALID,25.5337,VALID,345,VALID,0.257031,
2009-02-18, 00:25:04,VALID,1004.28,VALID,0,VALID,83.6354,VALID,0,VALID,25.5551,VALID,359,VALID,0.663281,
2009-02-18, 00:26:04,VALID,1004.27,VALID,0,VALID,83.788,VALID,0,VALID,25.5727,VALID,347,VALID,0.385156,
2009-02-18, 00:27:04,VALID,1004.28,VALID,0,VALID,83.5973,VALID,0,VALID,25.5921,VALID,350,VALID,0.41875,
2009-02-18, 00:28:04,VALID,1004.27,VALID,0,VALID,83.7804,VALID,0,VALID,25.5921,VALID,349,VALID,0.2,
2009-02-18, 00:29:04,VALID,1004.25,VALID,0,VALID,83.7193,VALID,0,VALID,25.5921,VALID,349,VALID,0.00351562,
2009-02-18, 00:30:04,VALID,1004.25,VALID,0,VALID,83.3455,VALID,0,VALID,25.5921,VALID,349,VALID,0.462891,
2009-02-18, 00:31:04,VALID,1004.21,VALID,0,VALID,83.1701,VALID,0,VALID,25.5921,VALID,349,VALID,0.458203,
2009-02-18, 00:32:04,VALID,1004.21,VALID,0,VALID,83.2158,VALID,0,VALID,25.6116,VALID,3,VALID,0.411328,
2009-02-18, 00:33:04,VALID,1004.19,VALID,0,VALID,82.903,VALID,0.100563,VALID,25.5921,VALID,357,VALID,0.939453,
2009-02-18, 00:34:04,VALID,1004.18,VALID,0,VALID,82.7581,VALID,0,VALID,25.6116,VALID,358,VALID,0.635156,
2009-02-18, 00:35:04,VALID,1004.17,VALID,0,VALID,82.9641,VALID,0,VALID,25.6311,VALID,358,VALID,0.0167969,
2009-02-18, 00:36:04,VALID,1004.17,VALID,0,VALID,82.9564,VALID,0,VALID,25.6311,VALID,318,VALID,0.103516,
2009-02-18, 00:37:04,VALID,1004.14,VALID,0,VALID,83.0938,VALID,0,VALID,25.6097,VALID,319,VALID,0.295703,
2009-02-18, 00:38:04,VALID,1004.17,VALID,0,VALID,83.2311,VALID,0,VALID,25.6311,VALID,319,VALID,0.302734,
2009-02-18, 00:39:04,VALID,1004.14,VALID,0,VALID,83.2235,VALID,0,VALID,25.6311,VALID,338,VALID,0.205469,
2009-02-18, 00:40:04,VALID,1004.11,VALID,0,VALID,83.048,VALID,0,VALID,25.6116,VALID,341,VALID,0.455859,
2009-02-18, 00:41:04,VALID,1004.13,VALID,0,VALID,83.1548,VALID,0,VALID,25.5902,VALID,341,VALID,0.213281,
2009-02-18, 00:42:04,VALID,1004.1,VALID,0,VALID,83.0785,VALID,0,VALID,25.5921,VALID,344,VALID,0.342969,
2009-02-18, 00:43:04,VALID,1004.08,VALID,0,VALID,83.0404,VALID,0,VALID,25.5921,VALID,349,VALID,0.172266,
2009-02-18, 00:44:04,VALID,1004.1,VALID,0,VALID,83.0861,VALID,0,VALID,25.5921,VALID,349,VALID,0.0925781,
2009-02-18, 00:45:04,VALID,1004.07,VALID,0,VALID,83.048,VALID,0,VALID,25.5707,VALID,349,VALID,0.3375,
2009-02-18, 00:46:04,VALID,1004.07,VALID,0,VALID,83.0022,VALID,0,VALID,25.5921,VALID,349,VALID,0.153516,
2009-02-18, 00:47:04,VALID,1004.08,VALID,0,VALID,83.1624,VALID,0,VALID,25.5727,VALID,349,VALID,0.00429688,
2009-02-18, 00:48:04,VALID,1004.07,VALID,0,VALID,83.254,VALID,0,VALID,25.5727,VALID,352,VALID,0.123047,
2009-02-18, 00:49:04,VALID,1004.05,VALID,0,VALID,83.2921,VALID,0,VALID,25.5727,VALID,290,VALID,0.0648438,
2009-02-18, 00:50:04,VALID,1004.04,VALID,0,VALID,83.0404,VALID,0,VALID,25.5513,VALID,290,VALID,0.0121094,
2009-02-18, 00:51:04,VALID,1004,VALID,0,VALID,83.109,VALID,0,VALID,25.5727,VALID,291,VALID,0.284766,
2009-02-18, 00:52:04,VALID,1004.01,VALID,0,VALID,83.0022,VALID,0,VALID,25.5532,VALID,327,VALID,0.348047,
2009-02-18, 00:53:04,VALID,1003.98,VALID,0,VALID,82.8725,VALID,0,VALID,25.5318,VALID,330,VALID,0.309375,
2009-02-18, 00:54:04,VALID,1004.02,VALID,0,VALID,83.0327,VALID,0,VALID,25.5337,VALID,330,VALID,0,
2009-02-18, 00:55:04,VALID,1004.01,VALID,0,VALID,83.2463,VALID,0,VALID,25.5337,VALID,330,VALID,0.0796875,
2009-02-18, 00:56:04,VALID,1003.99,VALID,0,VALID,83.376,VALID,0.100563,VALID,25.5337,VALID,331,VALID,0.148828,
2009-02-18, 00:57:04,VALID,1004.01,VALID,0,VALID,83.3379,VALID,0,VALID,25.5142,VALID,339,VALID,0.391797,
2009-02-18, 00:58:04,VALID,1004.02,VALID,0,VALID,83.4065,VALID,0,VALID,25.4753,VALID,344,VALID,0.562109,
2009-02-18, 00:59:04,VALID,1004.01,VALID,0,VALID,83.3379,VALID,0,VALID,25.4558,VALID,351,VALID,0.525,
2009-02-18, 01:00:04,VALID,1004.01,VALID,0,VALID,83.4828,VALID,0,VALID,25.4558,VALID,351,VALID,0.249609,
2009-02-18, 01:01:04,VALID,1003.97,VALID,0,VALID,83.5439,VALID,0.100563,VALID,25.413,VALID,351,VALID,0.155469,
2009-02-18, 01:02:04,VALID,1003.95,VALID,0,VALID,83.376,VALID,0,VALID,25.4149,VALID,351,VALID,0.181641,
2009-02-18, 01:03:04,VALID,1003.95,VALID,0,VALID,83.4294,VALID,0.100563,VALID,25.4363,VALID,347,VALID,0,
2009-02-18, 01:04:04,VALID,1003.95,VALID,0,VALID,83.254,VALID,0.100563,VALID,25.4363,VALID,348,VALID,0.637109,
2009-02-18, 01:05:04,VALID,1003.96,VALID,0,VALID,83.2311,VALID,0,VALID,25.4169,VALID,2,VALID,0.714453,
2009-02-18, 01:06:04,VALID,1003.93,VALID,0,VALID,83.0404,VALID,0,VALID,25.4558,VALID,353,VALID,0.716406,
2009-02-18, 01:07:04,VALID,1003.92,VALID,0,VALID,83.0251,VALID,0,VALID,25.4753,VALID,356,VALID,0.842578,
2009-02-18, 01:08:04,VALID,1003.93,VALID,0,VALID,82.8649,VALID,0.100563,VALID,25.4948,VALID,358,VALID,0.817969,
2009-02-18, 01:09:04,VALID,1003.91,VALID,0,VALID,82.9107,VALID,0,VALID,25.4928,VALID,357,VALID,0.261328,
2009-02-18, 01:10:04,VALID,1003.87,VALID,0,VALID,83.0022,VALID,0,VALID,25.5337,VALID,357,VALID,0.333203,
2009-02-18, 01:11:04,VALID,1003.87,VALID,0,VALID,82.7123,VALID,0,VALID,25.5532,VALID,353,VALID,0.595703,
2009-02-18, 01:12:04,VALID,1003.86,VALID,0,VALID,82.7505,VALID,0,VALID,25.5513,VALID,353,VALID,0.309766,
2009-02-18, 01:13:04,VALID,1003.86,VALID,0,VALID,82.7734,VALID,0,VALID,25.5707,VALID,351,VALID,0.46875,
2009-02-18, 01:14:04,VALID,1003.83,VALID,0,VALID,82.7657,VALID,0,VALID,25.5707,VALID,341,VALID,0.24375,
2009-02-18, 01:15:04,VALID,1003.82,VALID,0,VALID,82.9336,VALID,0,VALID,25.6116,VALID,284,VALID,0.0710938,
2009-02-18, 01:16:04,VALID,1003.8,VALID,0,VALID,82.5674,VALID,0.100563,VALID,25.5902,VALID,354,VALID,1.04023,
2009-02-18, 01:17:04,VALID,1003.83,VALID,0,VALID,82.6131,VALID,0.100563,VALID,25.6116,VALID,351,VALID,1.14297,
2009-02-18, 01:18:04,VALID,1003.77,VALID,0,VALID,82.4529,VALID,0,VALID,25.5921,VALID,335,VALID,1.06484,
2009-02-18, 01:19:04,VALID,1003.79,VALID,0,VALID,82.6971,VALID,0,VALID,25.5921,VALID,348,VALID,0.578125,
2009-02-18, 01:20:04,VALID,1003.79,VALID,0,VALID,82.842,VALID,0,VALID,25.5921,VALID,347,VALID,0.0660156,
2009-02-18, 01:21:04,VALID,1003.76,VALID,0,VALID,82.7886,VALID,0,VALID,25.5727,VALID,350,VALID,0.375,
2009-02-18, 01:22:04,VALID,1003.74,VALID,0,VALID,82.987,VALID,0,VALID,25.5513,VALID,350,VALID,0.05,
2009-02-18, 01:23:04,VALID,1003.75,VALID,0,VALID,83.0938,VALID,0.100563,VALID,25.5532,VALID,350,VALID,0.555469,
2009-02-18, 01:24:04,VALID,1003.74,VALID,0,VALID,83.1777,VALID,0,VALID,25.5337,VALID,355,VALID,0.341406,
2009-02-18, 01:25:04,VALID,1003.73,VALID,0,VALID,83.4065,VALID,0,VALID,25.5551,VALID,353,VALID,0.273047,
2009-02-18, 01:26:04,VALID,1003.7,VALID,0,VALID,83.5591,VALID,0,VALID,25.4928,VALID,319,VALID,0.0515625,
2009-02-18, 01:27:04,VALID,1003.73,VALID,0,VALID,83.6049,VALID,0,VALID,25.4948,VALID,340,VALID,0.573828,
2009-02-18, 01:28:04,VALID,1003.71,VALID,0,VALID,83.7117,VALID,0,VALID,25.4539,VALID,344,VALID,0.683203,
2009-02-18, 01:29:04,VALID,1003.71,VALID,0,VALID,83.8948,VALID,0,VALID,25.4753,VALID,356,VALID,0.728516,
2009-02-18, 01:30:04,VALID,1003.72,VALID,0,VALID,84.0397,VALID,0.100563,VALID,25.4344,VALID,302,VALID,0.204297,
2009-02-18, 01:31:04,VALID,1003.74,VALID,0,VALID,84.2228,VALID,0.100563,VALID,25.4344,VALID,309,VALID,0,
2009-02-18, 01:32:04,VALID,1003.7,VALID,0,VALID,84.2076,VALID,0.100563,VALID,25.4363,VALID,309,VALID,0,
2009-02-18, 01:33:04,VALID,1003.7,VALID,0,VALID,84.4517,VALID,0.100563,VALID,25.4169,VALID,309,VALID,0.193359,
2009-02-18, 01:34:04,VALID,1003.73,VALID,0,VALID,84.4288,VALID,0.100563,VALID,25.4169,VALID,303,VALID,0.368359,
2009-02-18, 01:35:04,VALID,1003.73,VALID,0,VALID,84.7263,VALID,0.100563,VALID,25.4169,VALID,303,VALID,0.164063,
2009-02-18, 01:36:04,VALID,1003.72,VALID,0,VALID,84.6043,VALID,0,VALID,25.3565,VALID,303,VALID,0.101563,
2009-02-18, 01:37:04,VALID,1003.72,VALID,0,VALID,84.7111,VALID,0,VALID,25.3584,VALID,303,VALID,0.0636719,
2009-02-18, 01:38:04,VALID,1003.73,VALID,0,VALID,84.7569,VALID,0.100563,VALID,25.3584,VALID,303,VALID,0,
2009-02-18, 01:39:04,VALID,1003.72,VALID,0,VALID,84.9934,VALID,0,VALID,25.3584,VALID,303,VALID,0,
2009-02-18, 01:40:04,VALID,1003.71,VALID,0,VALID,85.0086,VALID,0.100563,VALID,25.339,VALID,303,VALID,0,
2009-02-18, 01:41:04,VALID,1003.71,VALID,0,VALID,85.1002,VALID,0,VALID,25.3195,VALID,303,VALID,0.230078,
2009-02-18, 01:42:04,VALID,1003.73,VALID,0,VALID,84.7645,VALID,0,VALID,25.2981,VALID,353,VALID,0.570703,
2009-02-18, 01:43:04,VALID,1003.71,VALID,0,VALID,84.6729,VALID,0,VALID,25.339,VALID,351,VALID,0.530859,
2009-02-18, 01:44:04,VALID,1003.72,VALID,0,VALID,84.6348,VALID,0.100563,VALID,25.337,VALID,352,VALID,0.0722656,
2009-02-18, 01:45:04,VALID,1003.69,VALID,0,VALID,84.9857,VALID,0,VALID,25.3584,VALID,352,VALID,0.0171875,
2009-02-18, 01:46:04,VALID,1003.7,VALID,0,VALID,84.9705,VALID,0.100563,VALID,25.337,VALID,351,VALID,0.00117188,
2009-02-18, 01:47:04,VALID,1003.7,VALID,0,VALID,84.8789,VALID,0,VALID,25.3584,VALID,286,VALID,0.473828,
2009-02-18, 01:48:04,VALID,1003.68,VALID,0,VALID,84.5661,VALID,0,VALID,25.3584,VALID,357,VALID,0.708203,
2009-02-18, 01:49:04,VALID,1003.65,VALID,0,VALID,84.3754,VALID,0,VALID,25.3993,VALID,348,VALID,0.731641,
2009-02-18, 01:50:04,VALID,1003.65,VALID,0,VALID,84.2991,VALID,0,VALID,25.376,VALID,357,VALID,0.679297,
2009-02-18, 01:51:04,VALID,1003.63,VALID,0,VALID,83.9101,VALID,0,VALID,25.376,VALID,356,VALID,0.672656,
2009-02-18, 01:52:04,VALID,1003.63,VALID,0,VALID,83.8033,VALID,0,VALID,25.3955,VALID,351,VALID,0.841406,
2009-02-18, 01:53:04,VALID,1003.58,VALID,0,VALID,83.6888,VALID,0,VALID,25.4363,VALID,6,VALID,0.943359,
2009-02-18, 01:54:04,VALID,1003.55,VALID,0,VALID,83.7956,VALID,0,VALID,25.4149,VALID,353,VALID,0.700781,
2009-02-18, 01:55:04,VALID,1003.57,VALID,0,VALID,83.2997,VALID,0,VALID,25.4558,VALID,352,VALID,0.923047,
2009-02-18, 01:56:04,VALID,1003.56,VALID,0,VALID,83.2235,VALID,0,VALID,25.4753,VALID,1,VALID,0.407422,
2009-02-18, 01:57:04,VALID,1003.54,VALID,0,VALID,83.1548,VALID,0,VALID,25.4734,VALID,351,VALID,0.605078,
2009-02-18, 01:58:04,VALID,1003.53,VALID,0,VALID,83.5515,VALID,0,VALID,25.4734,VALID,349,VALID,0.438281,
2009-02-18, 01:59:04,VALID,1003.52,VALID,0,VALID,83.2463,VALID,0,VALID,25.4558,VALID,347,VALID,0.332812,
2009-02-18, 02:00:04,VALID,1003.52,VALID,0,VALID,83.3226,VALID,0,VALID,25.4558,VALID,347,VALID,0.346094,
2009-02-18, 02:01:04,VALID,1003.51,VALID,0,VALID,83.2311,VALID,0,VALID,25.4344,VALID,347,VALID,0.282813,
2009-02-18, 02:02:04,VALID,1003.5,VALID,0,VALID,82.9717,VALID,0,VALID,25.4363,VALID,348,VALID,0.592578,
2009-02-18, 02:03:04,VALID,1003.48,VALID,0,VALID,82.4758,VALID,0,VALID,25.4344,VALID,329,VALID,0.491406,
2009-02-18, 02:04:04,VALID,1003.47,VALID,0,VALID,82.2546,VALID,0,VALID,25.4753,VALID,352,VALID,0.614844,
2009-02-18, 02:05:04,VALID,1003.48,VALID,0,VALID,81.8045,VALID,0,VALID,25.4753,VALID,352,VALID,0.519531,
2009-02-18, 02:06:04,VALID,1003.45,VALID,0,VALID,81.8121,VALID,0,VALID,25.4948,VALID,355,VALID,0.608203,
2009-02-18, 02:07:04,VALID,1003.46,VALID,0,VALID,81.6824,VALID,0,VALID,25.4948,VALID,351,VALID,0.647656,
2009-02-18, 02:08:04,VALID,1003.44,VALID,0,VALID,81.7511,VALID,0,VALID,25.4734,VALID,353,VALID,0.567187,
2009-02-18, 02:09:04,VALID,1003.47,VALID,0,VALID,81.8579,VALID,0,VALID,25.4948,VALID,353,VALID,0.549219,
2009-02-18, 02:10:04,VALID,1003.48,VALID,0,VALID,81.6443,VALID,0,VALID,25.4734,VALID,354,VALID,0.585156,
2009-02-18, 02:11:04,VALID,1003.46,VALID,0,VALID,82.0639,VALID,0,VALID,25.4948,VALID,356,VALID,0.930859,
2009-02-18, 02:12:04,VALID,1003.46,VALID,0,VALID,81.9113,VALID,0,VALID,25.4753,VALID,356,VALID,0.828906,
2009-02-18, 02:13:04,VALID,1003.45,VALID,0,VALID,81.7511,VALID,0,VALID,25.4753,VALID,357,VALID,0.360156,
2009-02-18, 02:14:04,VALID,1003.44,VALID,0,VALID,81.6367,VALID,0,VALID,25.4753,VALID,352,VALID,0.0589844,
2009-02-18, 02:15:04,VALID,1003.44,VALID,0,VALID,82.2241,VALID,0,VALID,25.4948,VALID,353,VALID,0.340234,
2009-02-18, 02:16:04,VALID,1003.45,VALID,0,VALID,82.7505,VALID,0,VALID,25.4558,VALID,354,VALID,0.504297,
2009-02-18, 02:17:04,VALID,1003.41,VALID,0,VALID,82.3232,VALID,0,VALID,25.3974,VALID,354,VALID,0.499609,
2009-02-18, 02:18:04,VALID,1003.44,VALID,0,VALID,82.0028,VALID,0,VALID,25.4169,VALID,348,VALID,0.519141,
2009-02-18, 02:19:04,VALID,1003.45,VALID,0,VALID,82.6742,VALID,0,VALID,25.4169,VALID,348,VALID,0.336719,
2009-02-18, 02:20:04,VALID,1003.45,VALID,0,VALID,82.903,VALID,0,VALID,25.3779,VALID,348,VALID,0.439453,
2009-02-18, 02:21:04,VALID,1003.43,VALID,0,VALID,83.46,VALID,0,VALID,25.3798,VALID,348,VALID,0.456641,
2009-02-18, 02:22:04,VALID,1003.44,VALID,0,VALID,83.6507,VALID,0,VALID,25.3,VALID,348,VALID,0.523438,
2009-02-18, 02:23:04,VALID,1003.41,VALID,0,VALID,83.9177,VALID,0,VALID,25.2416,VALID,348,VALID,0.492969,
2009-02-18, 02:24:04,VALID,1003.41,VALID,0,VALID,84.6272,VALID,0,VALID,25.2027,VALID,348,VALID,0.618359,
2009-02-18, 02:25:04,VALID,1003.38,VALID,0,VALID,84.7874,VALID,0,VALID,25.1442,VALID,350,VALID,0.707812,
2009-02-18, 02:26:04,VALID,1003.41,VALID,0,VALID,85.3595,VALID,0,VALID,25.0858,VALID,352,VALID,0.503516,
2009-02-18, 02:27:04,VALID,1003.38,VALID,0,VALID,85.0849,VALID,0,VALID,25.0274,VALID,353,VALID,0.603516,
2009-02-18, 02:28:04,VALID,1003.38,VALID,0,VALID,84.9857,VALID,0,VALID,24.9885,VALID,351,VALID,0.424219,
2009-02-18, 02:29:04,VALID,1003.38,VALID,0,VALID,85.7028,VALID,0,VALID,24.969,VALID,351,VALID,0.571875,
2009-02-18, 02:30:04,VALID,1003.38,VALID,0,VALID,85.2375,VALID,0,VALID,24.93,VALID,350,VALID,0.466016,
2009-02-18, 02:31:04,VALID,1003.38,VALID,0,VALID,85.001,VALID,0,VALID,24.9514,VALID,352,VALID,0.676562,
2009-02-18, 02:32:04,VALID,1003.39,VALID,0,VALID,84.6501,VALID,0,VALID,24.969,VALID,349,VALID,0.675391,
2009-02-18, 02:33:04,VALID,1003.38,VALID,0,VALID,84.2686,VALID,0,VALID,24.9885,VALID,348,VALID,0.711328,
2009-02-18, 02:34:04,VALID,1003.36,VALID,0,VALID,84.7569,VALID,0,VALID,25.0274,VALID,353,VALID,0.580469,
2009-02-18, 02:35:04,VALID,1003.35,VALID,0,VALID,84.6272,VALID,0,VALID,25.0469,VALID,355,VALID,0.614844,
2009-02-18, 02:36:04,VALID,1003.39,VALID,0,VALID,84.5661,VALID,0,VALID,25.0469,VALID,353,VALID,0.528906,
2009-02-18, 02:37:04,VALID,1003.36,VALID,0,VALID,84.4441,VALID,0,VALID,25.0469,VALID,353,VALID,0.617578,
2009-02-18, 02:38:04,VALID,1003.37,VALID,0,VALID,84.4899,VALID,0,VALID,25.0469,VALID,351,VALID,0.475391,
2009-02-18, 02:39:04,VALID,1003.37,VALID,0,VALID,84.3602,VALID,0,VALID,25.0079,VALID,352,VALID,0.4625,
2009-02-18, 02:40:04,VALID,1003.35,VALID,0,VALID,84.1694,VALID,0,VALID,25.0079,VALID,352,VALID,0.417188,
2009-02-18, 02:41:04,VALID,1003.34,VALID,0,VALID,84.1771,VALID,0,VALID,25.0274,VALID,352,VALID,0.423047,
2009-02-18, 02:42:04,VALID,1003.35,VALID,0,VALID,84.4364,VALID,0,VALID,25.0488,VALID,347,VALID,0.530078,
2009-02-18, 02:43:04,VALID,1003.34,VALID,0,VALID,84.467,VALID,0,VALID,25.0274,VALID,345,VALID,0.501562,
2009-02-18, 02:44:04,VALID,1003.35,VALID,0,VALID,83.8338,VALID,0,VALID,25.0293,VALID,346,VALID,0.710938,
2009-02-18, 02:45:04,VALID,1003.37,VALID,0,VALID,83.5668,VALID,0,VALID,25.0469,VALID,347,VALID,0.275,
2009-02-18, 02:46:04,VALID,1003.37,VALID,0,VALID,83.8414,VALID,0,VALID,25.0663,VALID,347,VALID,0.194141,
2009-02-18, 02:47:04,VALID,1003.37,VALID,0,VALID,83.9329,VALID,0,VALID,25.1053,VALID,347,VALID,0.282813,
2009-02-18, 02:48:04,VALID,1003.32,VALID,0,VALID,84.4212,VALID,0,VALID,25.1053,VALID,345,VALID,0.516797,
2009-02-18, 02:49:04,VALID,1003.32,VALID,0,VALID,83.8033,VALID,0,VALID,25.0858,VALID,341,VALID,0.608594,
2009-02-18, 02:50:04,VALID,1003.32,VALID,0,VALID,84.4059,VALID,0,VALID,25.1267,VALID,341,VALID,0.565234,
2009-02-18, 02:51:04,VALID,1003.32,VALID,0,VALID,83.9482,VALID,0,VALID,25.0858,VALID,356,VALID,0.471875,
2009-02-18, 02:52:04,VALID,1003.31,VALID,0,VALID,84.2762,VALID,0,VALID,25.1072,VALID,357,VALID,0.518359,
2009-02-18, 02:53:04,VALID,1003.3,VALID,0,VALID,83.9711,VALID,0,VALID,25.0858,VALID,357,VALID,0.442578,
2009-02-18, 02:54:04,VALID,1003.27,VALID,0,VALID,83.9024,VALID,0,VALID,25.1053,VALID,355,VALID,0.028125,
2009-02-18, 02:55:04,VALID,1003.28,VALID,0,VALID,83.7117,VALID,0,VALID,25.1053,VALID,350,VALID,0.513672,
2009-02-18, 02:56:04,VALID,1003.26,VALID,0,VALID,83.6812,VALID,0,VALID,25.1248,VALID,355,VALID,0.764063,
2009-02-18, 02:57:04,VALID,1003.27,VALID,0,VALID,84.055,VALID,0,VALID,25.1248,VALID,352,VALID,0.548828,
2009-02-18, 02:58:04,VALID,1003.26,VALID,0,VALID,84.0931,VALID,0,VALID,25.1248,VALID,352,VALID,0.578516,
2009-02-18, 02:59:04,VALID,1003.27,VALID,0,VALID,84.0169,VALID,0,VALID,25.1053,VALID,346,VALID,0.741797,
2009-02-18, 03:00:04,VALID,1003.23,VALID,0,VALID,84.1847,VALID,0,VALID,25.0839,VALID,345,VALID,0.703516,
2009-02-18, 03:01:04,VALID,1003.23,VALID,0,VALID,84.055,VALID,0,VALID,25.0858,VALID,352,VALID,0.703906,
2009-02-18, 03:02:04,VALID,1003.21,VALID,0,VALID,84.1542,VALID,0,VALID,25.0663,VALID,354,VALID,0.820703,
2009-02-18, 03:03:04,VALID,1003.23,VALID,0,VALID,84.261,VALID,0,VALID,25.0858,VALID,345,VALID,0.625,
2009-02-18, 03:04:04,VALID,1003.2,VALID,0,VALID,84.8179,VALID,0,VALID,25.1072,VALID,347,VALID,0.538281,
2009-02-18, 03:05:04,VALID,1003.21,VALID,0,VALID,84.7416,VALID,0,VALID,25.0469,VALID,341,VALID,0.472656,
2009-02-18, 03:06:04,VALID,1003.21,VALID,0,VALID,84.5814,VALID,0,VALID,25.0274,VALID,349,VALID,0.564453,
2009-02-18, 03:07:04,VALID,1003.19,VALID,0,VALID,84.8484,VALID,0,VALID,25.0079,VALID,350,VALID,0.43125,
2009-02-18, 03:08:04,VALID,1003.19,VALID,0,VALID,84.9323,VALID,0,VALID,25.0079,VALID,350,VALID,0.184375,
2009-02-18, 03:09:04,VALID,1003.2,VALID,0,VALID,84.8103,VALID,0,VALID,25.0079,VALID,351,VALID,0.632422,
2009-02-18, 03:10:04,VALID,1003.17,VALID,0,VALID,85.3443,VALID,0,VALID,25.0079,VALID,350,VALID,0.591016,
2009-02-18, 03:11:04,VALID,1003.19,VALID,0,VALID,85.0773,VALID,0,VALID,24.969,VALID,352,VALID,0.702734,
2009-02-18, 03:12:04,VALID,1003.2,VALID,0,VALID,85.3595,VALID,0,VALID,24.969,VALID,353,VALID,0.792969,
2009-02-18, 03:13:04,VALID,1003.18,VALID,0,VALID,85.2222,VALID,0,VALID,24.9495,VALID,353,VALID,0.887891,
2009-02-18, 03:14:04,VALID,1003.19,VALID,0,VALID,84.9934,VALID,0,VALID,24.9495,VALID,349,VALID,0.837891,
2009-02-18, 03:15:04,VALID,1003.18,VALID,0,VALID,85.474,VALID,0,VALID,24.9671,VALID,350,VALID,0.490234,
2009-02-18, 03:16:04,VALID,1003.19,VALID,0,VALID,85.268,VALID,0,VALID,24.969,VALID,353,VALID,0.65,
2009-02-18, 03:17:04,VALID,1003.17,VALID,0,VALID,85.0773,VALID,0,VALID,24.9495,VALID,349,VALID,0.5125,
2009-02-18, 03:18:04,VALID,1003.2,VALID,0,VALID,84.795,VALID,0,VALID,24.9885,VALID,2,VALID,0.682031,
2009-02-18, 03:19:04,VALID,1003.19,VALID,0,VALID,84.7797,VALID,0,VALID,25.0274,VALID,348,VALID,0.659766,
2009-02-18, 03:20:04,VALID,1003.18,VALID,0,VALID,84.589,VALID,0,VALID,25.0274,VALID,351,VALID,0.538672,
2009-02-18, 03:21:04,VALID,1003.18,VALID,0,VALID,84.4517,VALID,0,VALID,25.0274,VALID,310,VALID,0.0761719,
2009-02-18, 03:22:04,VALID,1003.17,VALID,0,VALID,84.1237,VALID,0.100563,VALID,25.045,VALID,271,VALID,0.396094,
2009-02-18, 03:23:04,VALID,1003.2,VALID,0,VALID,84.0855,VALID,0,VALID,25.0858,VALID,271,VALID,0,
2009-02-18, 03:24:04,VALID,1003.16,VALID,0,VALID,83.4905,VALID,0,VALID,25.1442,VALID,354,VALID,0.542969,
2009-02-18, 03:25:04,VALID,1003.17,VALID,0,VALID,83.2387,VALID,0,VALID,25.1637,VALID,354,VALID,0.119141,
2009-02-18, 03:26:04,VALID,1003.15,VALID,0,VALID,83.1929,VALID,0,VALID,25.1832,VALID,324,VALID,0.483594,
2009-02-18, 03:27:04,VALID,1003.13,VALID,0,VALID,83.1853,VALID,0,VALID,25.2221,VALID,286,VALID,0.675391,
2009-02-18, 03:28:04,VALID,1003.14,VALID,0,VALID,83.2311,VALID,0,VALID,25.2416,VALID,288,VALID,0.289063,
2009-02-18, 03:29:04,VALID,1003.15,VALID,0,VALID,83.3074,VALID,0,VALID,25.2806,VALID,288,VALID,0.0460938,
2009-02-18, 03:30:04,VALID,1003.13,VALID,0,VALID,83.0404,VALID,0,VALID,25.2825,VALID,288,VALID,0.291406,
2009-02-18, 03:31:04,VALID,1003.09,VALID,0,VALID,83.048,VALID,0,VALID,25.2592,VALID,352,VALID,0.426562,
2009-02-18, 03:32:04,VALID,1003.07,VALID,0,VALID,83.0098,VALID,0,VALID,25.2806,VALID,353,VALID,0.765234,
2009-02-18, 03:33:04,VALID,1003.1,VALID,0,VALID,83.1777,VALID,0,VALID,25.2806,VALID,347,VALID,0.548047,
2009-02-18, 03:34:04,VALID,1003.07,VALID,0,VALID,82.8268,VALID,0,VALID,25.263,VALID,348,VALID,0.68125,
2009-02-18, 03:35:04,VALID,1003.06,VALID,0,VALID,83.1777,VALID,0,VALID,25.2416,VALID,346,VALID,0.700781,
2009-02-18, 03:36:04,VALID,1003.05,VALID,0,VALID,83.2692,VALID,0,VALID,25.2416,VALID,341,VALID,0.575,
2009-02-18, 03:37:04,VALID,1003.04,VALID,0,VALID,83.1929,VALID,0,VALID,25.2221,VALID,357,VALID,0.692187,
2009-02-18, 03:38:04,VALID,1003.01,VALID,0,VALID,83.3913,VALID,0,VALID,25.2027,VALID,333,VALID,0.548828,
2009-02-18, 03:39:04,VALID,1002.99,VALID,0,VALID,83.3989,VALID,0,VALID,25.1813,VALID,348,VALID,0.874219,
2009-02-18, 03:40:04,VALID,1002.94,VALID,0,VALID,83.1395,VALID,0,VALID,25.1832,VALID,332,VALID,0.812109,
2009-02-18, 03:41:04,VALID,1002.92,VALID,0,VALID,83.8185,VALID,0,VALID,25.2027,VALID,350,VALID,0.557031,
2009-02-18, 03:42:04,VALID,1002.88,VALID,0,VALID,84.0626,VALID,0,VALID,25.1832,VALID,350,VALID,0.523438,
2009-02-18, 03:43:04,VALID,1002.87,VALID,0,VALID,84.0474,VALID,0,VALID,25.1229,VALID,351,VALID,0.678125,